Weather in Lyubim

Russia / Yaroslavl Oblast     58°21′43″N   40°41′12″E
temp.,
°C
wind,
m/s
gust,
m/s
humid.,
%
clouds,
%
prec.,
mm/h
press.,
hPa
HPBL,
m
18 january, mon
mon1800:00−22sw229614 0.0 101820
03:00−21sw229849 0.0 101822
06:00−18sw229897 0.0 101760
09:00−18ssw369797 0.1 1018164
12:00−15wsw1394100 0.1 1018213
15:00−14wsw129699 0.2 1018165
18:00−18sw129845 0.0 101820
21:00−19ssw129963 0.1 101920
19 january, tue
tue1900:00−17ssw229889 0.1 101967
03:00−18nw119789 0.2 101820
06:00−19s129956 0.0 101820
09:00−18ssw129875 0.1 101834
12:00−14wsw119496 0.1 1017167
15:00−14ssw119796 0.2 101636
18:00−15w119787 0.1 101620
21:00−16sw119890 0.1 101620
20 january, wed
wed2000:00−16wnw129792 0.1 101620
03:00−16wnw229788 0.1 101761
06:00−15wnw129787 0.1 101634
09:00−15w229787 0.2 101752
12:00−13wnw249582 0.1 1017214
15:00−13w249688 0.1 1018126
18:00−17w229786 0.0 101821
21:00−18wsw229743 0.0 101920
21 january, thu
thu2100:00−18sw22987 0.0 101920
03:00−19ssw229820 0.0 101926
06:00−18s259899 0.0 1016115
09:00−15s4109399 0.0 1013296
12:00−12sse61388100 0.1 1008508
15:00−10ssw61394100 3.2 1003831
18:00−8ssw41195100 2.9 1000732
21:00−4sw31196100 5.4 998640
22 january, fri
fri2200:00+1wnw512100100 1.5 998714
03:00−8nnw3894100 1.6 1001285
06:00−13n2595100 0.0 1005106
09:00−15ne2494100 0.0 1009110
12:00−13ne2493100 0.0 1010226
15:00−13ne2494100 0.0 1011246
18:00−15ene379599 0.0 1013242
21:00−16ene3795100 0.0 1014253